Regional Weather Roundup
Issued by NWS

Home | Current Version | Previous Version | Graphics & Text | Print | Product List | Glossary On
Versions: 1 2 3 4 5 6 7 8 9 10 11 12 13 14 15 16 17 18 19 20 21 22 23 24 25 26 27 28 29 30 31 32 33 34 35 36 37 38 39 40 41 42 43 44 45 46 47 48 49 50
000
ASUS43 KIND 050609
RWRIN

WEATHER ROUNDUP FOR INDIANA
NATIONAL WEATHER SERVICE INDIANAPOLIS IN
200 AM EDT TUE MAY 05 2015

NOTE: "FAIR" INDICATES FEW OR NO CLOUDS BELOW 12,000 FEET WITH NO
SIGNIFICANT WEATHER AND/OR OBSTRUCTIONS TO VISIBILITY.

* - STATION DOES NOT REPORT WEATHER SUCH AS PRECIPITATION OR FOG.

+ - STATION NOT QUALITY CONTROLLED BY THE NATIONAL WEATHER SERVICE.
    USE DATA WITH CAUTION...ESPECIALLY DEWPOINT AND RELATIVE
    HUMIDITY OBSERVATIONS.

INZ001>003-010>013-019-020-050700-
NORTHWEST INDIANA

CITY           SKY/WX    TMP DP  RH WIND       PRES   REMARKS
GARY /AIRPORT/ CLOUDY    54  45  73 NE5       30.17F
KNOX *+        CLOUDY    61  54  77 NE3       30.16S
LA PORTE +     MOCLDY    62  56  81 NE5       30.17F
6HR MIN TEMP:  62; 6HR MAX TEMP:  69;

MICHIGAN CITY+ MOCLDY    55  54  94 CALM      30.18S
MONTICELLO +   CLOUDY    61  60  98 CALM      30.16F
6HR MIN TEMP:  58; 6HR MAX TEMP:  66; 6HR PCP:  0.01;

VALPARAISO     CLOUDY    58  54  86 NE6       30.17F
6HR MIN TEMP:  57; 6HR MAX TEMP:  67;


$$

LMZ046-743>745-050700-
SOUTHERN LAKE MICHIGAN

STATION/POSITION TIME  TEMP    WIND        PRES    WAVE
                       AIR SEA DIR/SP/G            HT
                 (UTC) (F)     (DEG/KT/KT) (MB)    (FT)
BURNS HARBOR     0600   53      80/  7/ 10 1022.0S
MICHIGAN CITY    0600   56      50/  5/  6   N/A
5NW MICH CITY    0600   52 50   90/  4/  6   N/A     1

$$

INZ004-005-014>016-021>024-050700-
NORTH CENTRAL INDIANA

CITY           SKY/WX    TMP DP  RH WIND       PRES   REMARKS
GOSHEN         CLOUDY    59  57  93 CALM      30.18S FOG
6HR MIN TEMP:  57; 6HR MAX TEMP:  69;

LOGANSPORT +   MOCLDY    59  55  88 SW3       30.20R FOG
PERU/GRISSOM   LGT RAIN  61  59  94 E3        30.17S
6HR MIN TEMP:  61; 6HR MAX TEMP:  65; 6HR PCP:  0.04;

ROCHESTER +    MOCLDY    64  64 100 SE3       30.18S FOG
SOUTH BEND     MOCLDY    61  55  81 NE5       30.18F
6HR MIN TEMP:  59; 6HR MAX TEMP:  68;

WARSAW +       MOCLDY    59  59 100 CALM      30.18S FOG

$$

INZ006>009-017-018-025>027-050700-
NORTHEAST INDIANA

CITY           SKY/WX    TMP DP  RH WIND       PRES   REMARKS
ANGOLA *+      CLOUDY    55  55 100 CALM      30.19F VSB 1/4
AUBURN +       CLOUDY    59  57  94 CALM      30.20S FOG
FORT WAYNE     CLOUDY    61  59  93 S3        30.20R FOG
6HR MIN TEMP:  60; 6HR MAX TEMP:  65; 6HR PCP:  0.01;

HUNTINGTON +   MOCLDY    60  59  97 S3        30.19S
6HR MIN TEMP:  59; 6HR MAX TEMP:  64; 6HR PCP:  0.16;


$$

INZ028-029-035-036-043>045-051>053-050700-
WEST CENTRAL INDIANA

CITY           SKY/WX    TMP DP  RH WIND       PRES   REMARKS
CRAWFORDSVL +  MOCLDY    60  54  78 SE9       30.16S
6HR MIN TEMP:  60; 6HR MAX TEMP:  61; 6HR PCP:  0.03;

GREENCASTLE +  CLOUDY    61  55  82 SE3       30.19S FOG
LAFAYETTE      CLOUDY    61  59  93 E5        30.15S
6HR MIN TEMP:  58; 6HR MAX TEMP:  63;

TERRE HAUTE    MOCLDY    61  57  87 SE3       30.16S
6HR MIN TEMP:  60; 6HR MAX TEMP:  76;


$$

INZ030>032-037>040-046>048-054>057-064-065-050700-
CENTRAL INDIANA

CITY           SKY/WX    TMP DP  RH WIND       PRES   REMARKS
CP ATTERBURY + FOG       59  55  88 CALM      30.20S VSB 1/4
FISHERS *+     CLOUDY    61  61 100 SE6       30.19S
FRANKFORT +    MOCLDY    63  63 100 E9        30.18F
                                      6HR PCP:  0.06;

GREENWOOD *+   CLOUDY    64  61  88 SE5       30.20R
INDIANAPOLIS   CLOUDY    63  59  87 SE8       30.17S
6HR MIN TEMP:  63; 6HR MAX TEMP:  72;

-EAGLE CREEK   CLOUDY    62  59  90 E3        30.19R
6HR MIN TEMP:  60; 6HR MAX TEMP:  67; 6HR PCP: TRACE;

KOKOMO *+      MOCLDY    61  59  94 CALM      30.18S
6HR MIN TEMP:  61; 6HR MAX TEMP:  64; 6HR PCP:  0.16;

MARION +       MOCLDY    60  58  92 SE5       30.19S
MT COMFORT *+  PTCLDY    63 N/A N/A SE6       30.20S
SHELBYVILLE    CLOUDY    65  60  84 E10       30.20R
6HR MIN TEMP:  65; 6HR MAX TEMP:  75; 6HR PCP:  0.01;

ZIONSVILLE +   CLOUDY    62  58  87 S6        30.19S
6HR MIN TEMP:  62; 6HR MAX TEMP:  63; 6HR PCP:  0.03;


$$

INZ033-034-041-042-049-050-058-059-050700-
EAST CENTRAL INDIANA

CITY           SKY/WX    TMP DP  RH WIND       PRES   REMARKS
MUNCIE         LGT RAIN  62  59  90 SE8       30.19F
6HR MIN TEMP:  62; 6HR MAX TEMP:  68; 6HR PCP:  1.26;


$$

INZ060-061-067>069-081>083-085>088-050700-
SOUTHWEST INDIANA

CITY           SKY/WX    TMP DP  RH WIND       PRES   REMARKS
EVANSVILLE     CLEAR     67  56  67 SW5       30.20R
6HR MIN TEMP:  66; 6HR MAX TEMP:  80;

HUNTINGBURG *+ CLEAR     66  54  63 S6        30.20S
6HR MIN TEMP:  66; 6HR MAX TEMP:  77;

WASHINGTON +   CLEAR     66  53  63 S9        30.18R
6HR MIN TEMP:  64; 6HR MAX TEMP:  77;


$$

INZ062-063-066-070>080-084-089>092-050700-
SOUTH CENTRAL AND SOUTHEAST INDIANA

CITY           SKY/WX    TMP DP  RH WIND       PRES   REMARKS
BEDFORD +      CLEAR     64  54  68 S3        30.20R
BLOOMINGTON    CLEAR     67  55  65 S6        30.19R
6HR MIN TEMP:  65; 6HR MAX TEMP:  77;

MADISON *+     CLEAR     61  55  82 S3        30.23S
NORTH VERNON + CLEAR     59  59 100 NE3       30.21R
SEYMOUR +      CLEAR     63  57  82 S5        30.19R

$$



USA.gov is the U.S. government's official web portal to all federal, state and local government web resources and services.